This is the latest recevied weather packets stored in our database for station/object WS4FSC-7. If no packets are shown the sender has not sent any weather packets the latest 10 day(s).
| Time | Temp. | Humidity | Pressure | Rain* | Wind** | Luminosity | Snow |
|---|---|---|---|---|---|---|---|
| 1787837210 | 30.56° C | 76% | 1016 hPa | - | - | 392 W/m² | - |
| 1787836671 | 31.11° C | 75% | 1016 hPa | - | - | 271 W/m² | - |
| 1787836310 | 31.11° C | 73% | 1016 hPa | - | - | 201 W/m² | - |
| 1787836131 | 31.11° C | 74% | 1016 hPa | - | - | 95 W/m² | - |
| 1787835910 | 31.11° C | 73% | 1016 hPa | - | - | 310 W/m² | - |
| 1787835771 | 31.11° C | 73% | 1016 hPa | - | - | 310 W/m² | - |
| 1787834331 | 30.56° C | 75% | 1016 hPa | - | - | 142 W/m² | - |
| 1787833971 | 31.11° C | 75% | 1015 hPa | - | - | 147 W/m² | - |
| 1787833610 | 30.56° C | 75% | 1016 hPa | - | - | 168 W/m² | - |
| 1787833251 | 30.56° C | 76% | 1015 hPa | - | - | 150 W/m² | - |
| 1787833070 | 30.56° C | 77% | 1015 hPa | - | - | 152 W/m² | - |
| 1787832710 | 30° C | 78% | 1015 hPa | - | - | 147 W/m² | - |
| 1787831091 | 28.33° C | 83% | 1015 hPa | - | - | 70 W/m² | - |
| 1787830488 | 27.78° C | 85% | 1015 hPa | - | - | 47 W/m² | - |
| 1787830371 | 27.78° C | 85% | 1015 hPa | - | - | 47 W/m² | - |
| 1787830190 | 27.78° C | 86% | 1015 hPa | - | - | 42 W/m² | - |
| 1787830010 | 27.78° C | 87% | 1015 hPa | - | - | 39 W/m² | - |
| 1787829650 | 27.22° C | 87% | 1015 hPa | - | - | 29 W/m² | - |
| 1787829471 | 27.22° C | 87% | 1015 hPa | - | - | 23 W/m² | - |
| 1787829290 | 27.22° C | 88% | 1015 hPa | - | - | 17 W/m² | - |
| 1787829111 | 27.22° C | 88% | 1015 hPa | - | - | 12 W/m² | - |
| 1787829040 | 27.22° C | 88% | 1015 hPa | - | - | 9 W/m² | - |
| 1787828931 | 27.22° C | 88% | 1015 hPa | - | - | 9 W/m² | - |
| 1787828751 | 27.22° C | 88% | 1015 hPa | - | - | 6 W/m² | - |
| 1787828571 | 27.22° C | 87% | 1015 hPa | - | - | 4 W/m² | - |
* Rain since midnight (hover to see other rain measurements)
** Current wind speed in m/s (hover to see current wind gust speed)